This is the latest recevied weather packets stored in our database for station/object KK7ISX. If no packets are shown the sender has not sent any weather packets the latest 10 day(s).
| Time | Temp. | Humidity | Pressure | Rain* | Wind** | Luminosity | Snow |
|---|---|---|---|---|---|---|---|
| 1788139754 | 74° F | 26% | 761.9 mmHg | 0 in | - | 47 W/m² | - |
| 1788139449 | 74° F | 26% | 762.1 mmHg | 0 in | - | 55 W/m² | - |
| 1788139143 | 75° F | 25% | 762.1 mmHg | 0 in | - | 68 W/m² | - |
| 1788138838 | 75° F | 27% | 762.1 mmHg | 0 in | - | 74 W/m² | - |
| 1788138534 | 75° F | 26% | 762.1 mmHg | 0 in | - | 83 W/m² | - |
| 1788138233 | 75° F | 25% | 762.2 mmHg | 0 in | - | 91 W/m² | - |
| 1788137929 | 75° F | 25% | 762.1 mmHg | 0 in | - | 98 W/m² | - |
| 1788137625 | 75° F | 26% | 762.3 mmHg | 0 in | - | 109 W/m² | - |
| 1788137319 | 75° F | 26% | 762.2 mmHg | 0 in | - | 119 W/m² | - |
| 1788137016 | 75° F | 27% | 762.3 mmHg | 0 in | - | 130 W/m² | - |
| 1788136711 | 75° F | 26% | 762.4 mmHg | 0 in | - | 133 W/m² | - |
| 1788136407 | 75° F | 27% | 762.2 mmHg | 0 in | - | 155 W/m² | - |
| 1788136107 | 75° F | 27% | 762.4 mmHg | 0 in | - | 153 W/m² | - |
| 1788135800 | 75° F | 27% | 762.3 mmHg | 0 in | - | 177 W/m² | - |
| 1788135497 | 75° F | 27% | 762.4 mmHg | 0 in | - | 185 W/m² | - |
| 1788135196 | 74° F | 27% | 762.5 mmHg | 0 in | - | 182 W/m² | - |
| 1788134895 | 75° F | 27% | 762.3 mmHg | 0 in | - | 164 W/m² | - |
| 1788134594 | 75° F | 26% | 762.5 mmHg | 0 in | - | 219 W/m² | - |
| 1788134292 | 75° F | 25% | 762.4 mmHg | 0 in | - | 229 W/m² | - |
| 1788133987 | 75° F | 24% | 762.4 mmHg | 0 in | - | 240 W/m² | - |
| 1788133682 | 76° F | 25% | 762.5 mmHg | 0 in | - | 249 W/m² | - |
| 1788133378 | 76° F | 25% | 762.5 mmHg | 0 in | - | 261 W/m² | - |
| 1788133074 | 75° F | 24% | 762.7 mmHg | 0 in | - | 276 W/m² | - |
| 1788132770 | 75° F | 27% | 762.7 mmHg | 0 in | - | 291 W/m² | - |
| 1788132465 | 75° F | 26% | 762.7 mmHg | 0 in | - | 309 W/m² | - |
* Rain latest hour (hover to see other rain measurements)
** Current wind speed in m/s (hover to see current wind gust speed)